This demonstration page uses our WeatherBlox Daily Observations layout. Learn more.

Left ArrowRight Arrow

Hourly Observations for May 6, 2016

Temp ( °F °C ) Dew Point ( °F °C ) Humidity (%) Winds ( mph kmh ) Pressure ( in mb ) Visibility ( mi km ) Precip ( " mm )
12:53 am 00:53 Clear 50 10 44 6.7 80 80 NNW 6 9 29.93 1013 10 16 N/A
1:53 am 01:53 Clear 50 10 45 7.2 83 83 NNW 8 13 29.93 1014 10 16 N/A
2:53 am 02:53 Partly Cloudy 49 9.4 45 7.2 86 86 NNW 6 9 29.93 1014 10 16 N/A
3:53 am 03:53 Mostly Clear 46 7.8 43 6.1 89 89 NW 6 9 29.93 1014 10 16 N/A
4:53 am 04:53 Mostly Cloudy 46 7.8 44 6.7 93 93 NW 5 7 29.93 1014 10 16 N/A
5:53 am 05:53 Clear 44 6.7 42 5.6 93 93 NW 3 6 29.93 1014 10 16 N/A
6:53 am 06:53 Partly Cloudy with Mist and Fog 43 6.1 42 5.6 97 97 NNW 5 7 29.95 1014 6 10 N/A
7:53 am 07:53 Sunny 51 10.6 44 6.7 77 77 NW 5 7 29.97 1015 10 16 N/A
8:53 am 08:53 Sunny 55 12.8 44 6.7 67 67 N 7 11 29.98 1015 10 16 N/A
9:53 am 09:53 Sunny 60 15.6 45 7.2 58 58 NNW 8 13 29.99 1016 10 16 N/A
10:53 am 10:53 Sunny 63 17.2 43 6.1 48 48 N 8 13 29.99 1016 10 16 N/A
11:53 am 11:53 Sunny 66 18.9 44 6.7 45 45 N 8 13 29.99 1016 10 16 N/A
12:53 pm 12:53 Sunny 68 20 46 7.8 45 45 NNW 9 15 29.98 1015 10 16 N/A
1:53 pm 13:53 Mostly Sunny 68 20 45 7.2 44 44 N 12 19 29.96 1015 10 16 N/A
2:53 pm 14:53 Mostly Cloudy 68 20 46 7.8 45 45 NW 8 13 29.94 1014 10 16 N/A
3:53 pm 15:53 Mostly Cloudy 70 21.1 46 7.8 42 42 NNW 10 17 29.92 1013 10 16 N/A
4:53 pm 16:53 Partly Cloudy 71 21.7 44 6.7 38 38 NW 13 20 29.89 1012 10 16 N/A
5:53 pm 17:53 Partly Cloudy 70 21.1 43 6.1 38 38 NW 16 26 29.88 1012 10 16 N/A
6:53 pm 18:53 Sunny 69 20.6 40 4.4 35 35 NW 13 20 29.88 1012 10 16 N/A
7:53 pm 19:53 Sunny 67 19.4 40 4.4 37 37 NW 10 17 29.88 1012 10 16 N/A
8:53 pm 20:53 Clear 58 14.4 45 7.2 62 62 N N/A 29.89 1012 10 16 N/A
9:53 pm 21:53 Clear 52 11.1 46 7.8 80 80 N N/A 29.88 1012 10 16 N/A
10:53 pm 22:53 Clear 50 10 47 8.3 89 89 N N/A 29.89 1012 10 16 N/A
11:53 pm 23:53 Clear 48 8.9 45 7.2 89 89 N N/A 29.88 1012 10 16 N/A

Powered by AerisWeather